Location: Delmar
(42.6220°N, 73.8326°W)
Time: 04:49:32
(UTC+00:00)

Cosmos 2058 - Pass Details

Date: 29 October 2020
Orbit: 562 x 583 km, 82.5° (Epoch: 29 November)

Event Time Altitude Azimuth Distance (km) Brightness Sun altitude
Rises 22:19:03 0° 8° (N) 2,764 6.2 -5.7°
Reaches altitude 10° 22:21:51 10° 28° (NNE) 1,862 5.1 -6.2°
Maximum altitude 22:24:39 18° 71° (ENE) 1,432 4.3 -6.7°
Drops below altitude 10° 22:27:26 10° 115° (ESE) 1,856 5.0 -7.2°
Sets 22:30:12 0° 135° (SE) 2,749 6.1 -7.7°
